Regional Weather Roundup
Issued by NWS

Home | Current Version | Previous Version | Graphics & Text | Print | Product List | Glossary On
Versions: 1 2 3 4 5 6 7 8 9 10 11 12 13 14 15 16 17 18 19 20 21 22 23 24 25 26 27 28 29 30 31 32 33 34 35 36 37 38 39 40 41 42 43 44 45 46 47 48 49 50
474
ASUS43 KMKX 221621
RWRWI

WISCONSIN REGIONAL WEATHER ROUNDUP
NATIONAL WEATHER SERVICE MILWAUKEE/SULLIVAN WI
1100 AM CDT TUE AUG 22 2017

NOTE: "FAIR" INDICATES FEW OR NO CLOUDS BELOW 12,000 FEET WITH NO
SIGNIFICANT WEATHER AND/OR OBSTRUCTIONS TO VISIBILITY.

WIZ001-002-006>008-014>016-023>028-221700-
NORTHWEST WISCONSIN

CITY           SKY/WX    TMP DP  RH WIND       PRES   REMARKS
SUPERIOR ARPT    N/A     67  56  67 W14       29.94S
ASHLAND        SUNNY     67  53  61 W12       29.92R
HAYWARD        SUNNY     65  49  56 W9        29.96S
SIREN          SUNNY     67  51  55 NW14G20   29.99F
CUMBERLAND     SUNNY     63  48  59 NW13G20   30.00R
RICE LAKE      MOSUNNY   65  52  61 W12       30.01R
CHETEK         SUNNY     65  51  60 NW9       29.99R
LADYSMITH      SUNNY     65  50  58 NW14G22   29.98R
EAU CLAIRE     SUNNY     67  50  54 NW12G21   29.98R
MENOMONIE      SUNNY     67  52  60 NW13      30.01R
NEW RICHMOND   SUNNY     67  51  56 W14       30.02S
OSCEOLA        SUNNY     67  53  59 NW13      30.05R
$$

WIZ003>005-009-010-017-018-221700-
NORTH CENTRAL WISCONSIN

CITY           SKY/WX    TMP DP  RH WIND       PRES   REMARKS
MANITOWISH WTR PTSUNNY   61  52  71 NW13G21   29.91R
ARBOR VITAE    MOSUNNY   63  52  67 NW16      29.90R
WOODRUFF       MOSUNNY   63  52  67 NW16      29.90R
RHINELANDER    PTSUNNY   64  52  64 W10G23    29.90R
EAGLE RIVER    PTSUNNY   60  49  67 NW13G18   29.88R
LAND O LAKES   MOSUNNY   61  51  70 NW9G22    29.89R
PHILLIPS       MOSUNNY   63  49  61 NW17G23   29.93R
TOMAHAWK         N/A     62  51  66 W13G18    29.92R
MEDFORD        MOSUNNY   64  50  61 NW17      29.94S
MERRILL        PTSUNNY   64  52  63 NW13G21   29.92R
$$

WIZ029-030-035-036-043>047-221700-
CENTRAL WISCONSIN

CITY           SKY/WX    TMP DP  RH WIND       PRES   REMARKS
WAUSAU         MOSUNNY   67  51  56 NW15G24   29.90R
MOSINEE        MOSUNNY   66  54  63 NW15G22   29.93R
MARSHFIELD     MOSUNNY   66  50  56 NW21G26   29.94R
STEVENS POINT  MOSUNNY   66  51  58 NW12G21   29.92R
WAUPACA        MOSUNNY   71  53  53 NW16      29.90R
WAUTOMA        PTSUNNY   68  54  60 NW15G22   29.91R
WISC RAPIDS    MOSUNNY   70  54  56 NW16G25   29.94R
CAMP DOUGLAS   MOSUNNY   70  55  60 NW15G23   29.94R
$$

WIZ011>013-019>022-031-037>040-048>050-221700-
NORTHEAST WISCONSIN

CITY           SKY/WX    TMP DP  RH WIND       PRES   REMARKS
ANTIGO         PTSUNNY   62  51  67 NW13G23   29.90R
SHAWANO        MOSUNNY   70  54  56 NW13G18   29.87R
OCONTO         PTSUNNY   69  53  57 NW12      29.83R
STURGEON BAY   NOT AVBL
GREEN BAY      MOSUNNY   70  57  63 NW18G26   29.85R
MANITOWOC      SUNNY     70  56  61 NW21      29.83R
APPLETON       PTSUNNY   70  48  46 NW21G26   29.86R
CLINTONVILLE   MOSUNNY   68  50  52 NW20G30   29.88R
OSHKOSH        MOSUNNY   70  56  61 NW17G24   29.87R
$$

WIZ032>034-041-042-053>061-221700-
SOUTHWEST WISCONSIN

CITY           SKY/WX    TMP DP  RH WIND       PRES   REMARKS
LA CROSSE      PTSUNNY   73  54  51 NW15G24   29.98R
SPARTA         MOSUNNY   68  54  60 NW17G23   29.98R
VIROQUA        PTSUNNY   66  57  71 NW13G21   29.98S
BOSCOBEL       MOSUNNY   73  57  57 NW14G20   29.97R
PRAIRIE DU CHI PTSUNNY   70  53  56 NW13G18   29.99R
PLATTEVILLE    MOSUNNY   69  62  77 NW14      29.97S
$$

WIZ056-057-062-063-064-067-068-221700-
SOUTH CENTRAL WISCONSIN

CITY           SKY/WX    TMP DP  RH WIND       PRES   REMARKS
REEDSBURG      MOSUNNY   71  55  55 NW12G21   29.94R
BARABOO/DELLS  MOSUNNY   71  52  51 NW14      29.93R
LONE ROCK      MOSUNNY   73  59  61 W12G21    29.94R
MINERAL POINT  MOSUNNY   72  59  64 NW14G21   29.96R
MADISON        PTSUNNY   72  59  63 NW9G18    29.91R
MIDDLETON      CLOUDY    72  59  64 N9G17     29.93R
WATERTOWN      MOSUNNY   72  60  66 NW15G22   29.89R
MONROE         MOSUNNY   70  59  68 W14       29.94R
JANESVILLE     MOSUNNY   75  63  64 NW13G18   29.90R
$$

WIZ051-052-058>065-066-070>072-221700-
SOUTHEAST WISCONSIN

CITY           SKY/WX    TMP DP  RH WIND       PRES   REMARKS
MILWAUKEE      PTSUNNY   76  62  62 W14G28    29.85R
WAUKESHA       PTSUNNY   70  59  68 W17       29.88R
MILWAUKEE/TIMM MOSUNNY   73  57  56 W16G25    29.86R
RACINE         CLOUDY    75  64  68 W14G22    29.87R
KENOSHA        CLOUDY    73  63  70 NW17      29.87R
FOND DU LAC    MOSUNNY   71  54  54 NW16G26   29.88R
SHEBOYGAN      MOSUNNY   72  62  71 N16G25    29.84R
WEST BEND      MOSUNNY   70  61  73 NW17G23   29.86R
JUNEAU         MOSUNNY   70  58  65 NW8G17    29.90R
$$

LSZ147-162-221700-
LAKE SUPERIOR

STATION/POSITION TIME  TEMP    WIND        PRES    WAVE
                       AIR SEA DIR/SP/G            HT/PER
                 (UTC) (F)     (DEG/KT/KT) (MB)    (FT/S)
W MID LAKE BUOY  1550   60 60  280/ 19/ 23 1009.6S   3/ 4
DEVILS ISLAND    1600   61     260/ 18/ 22 1011.7S
SAXON HARBOR     1530   63     300/ 12/ 20 1012.2S
$$

LMZ867-665-643>646-221700-
LAKE MICHIGAN

STATION/POSITION TIME  TEMP    WIND        PRES    WAVE
                       AIR SEA DIR/SP/G            HT/PER
                 (UTC) (F)     (DEG/KT/KT) (MB)    (FT/S)
S GREEN BAY BUOY 1600   68 71  300/ 16/ 19 1010.0
N MID LAKE BUOY  1550   64 67  300/ 19/ 23 1008.1R   4/ 4
NORTHPORT PIER   1540   67     310/ 16/ 23 1008.8R
KEWAUNEE LAKESHO 1554   69     310/ 11/ 18 1009.0R
SHEBOYGAN LAKESH 1600   70     310/ 18/ 22 1009.7R
PORT WASHINGTON  1530   75     300/  6/ 22 1011.2R
ATWATER BUOY     1509   70 64  270/ 17/ 19 1010.4R
MILWAUKEE LAKESH 1600   73     300/ 17/ 20   N/A
S MID LAKE BUOY  1550   70 71  310/ 19/ 21 1010.1R   4/ 5
KENOSHA   LAKESH 1600   73     270/ 13/ 24 1010.8
$$

TC  - TEMPERATURE IN CELSIUS
VSB - VISIBILITY IN STATUTE MILES
WCI - WIND CHILL INDEX
HX  - HEAT INDEX





USA.gov is the U.S. government's official web portal to all federal, state and local government web resources and services.